軌道要素
Epoch 2018 Nov. 18.0 TT = JDT 2458440.5
T 2018 Dec. 6.44334 TT MPCW
q 2.2002419 (2000.0) P Q
n 0.18659646 Peri. 11.10834 +0.99281833 +0.11954096
a 3.0329630 Node 342.02406 -0.11088499 +0.90490660
e 0.2745570 Incl. 0.86536 -0.04490306 +0.40847768
P 5.28
From 337 observations 2013 Sept. 15-2014 Feb. 13, mean residual 0".6.
|